Retour au catalogue

STARLINK-30713

ActifCommunicationsVLEO
NORAD 57952·PAYLOAD·🇺🇸 United States

Lancé Sep 25, 2023 depuis Vandenberg Space Force Base

Loading…

Prochains Passages (prochaines 24 heures)

TLE

FraisSource: CelesTrak SupGP

Époque: Sep 14, 2026, 20:42 UTC

1 57952C 23148T   26257.86298611  .00047146  00000+0  13927-2 0  2571
2 57952  53.1574 222.1825 0001325 103.5430 260.3505 15.34371139    13

Suivez STARLINK-30713 en temps réel avec AllMySat

Download on the App Store